Home   Weather   Wunstorf   Past weeks

Flag for Germany Past Weather in Wunstorf, Lower Saxony, Germany — Yesterday and Last 2 Weeks

Now
27 °F

Chilly.


Feels Like: 27 °F
Forecast: 27 / 37 °F
Wind: 2 mph from South

Location: Wunstorf Airport

Current Time: Dec 4, 2016 at 12:53:32 am

Latest Report: Dec 4, 2016 at 12:20 am


Visibility: N/A

Pressure: 30.36 "Hg

Humidity: 93%

Dew Point: 25 °F

Location of WunstorfLocation

Past Weather in Wunstorf — Graph

°F

Wunstorf Temperature Yesterday

Maximum temperature yesterday: 41 °F (at 1:20 pm)
Minimum temperature yesterday: 25 °F (at 8:20 am)
Average temperature yesterday: 31 °F

High & Low Weather Summary for the Past Weeks

 TemperatureHumidityPressure
High59 °F (Nov 21, 10:20 am)100% (Nov 23, 7:20 pm)30.60 "Hg (Nov 23, 7:20 pm)
Low19 °F (Nov 29, 3:20 am)49% (Dec 2, 12:20 pm)29.33 "Hg (Nov 20, 3:20 pm)
Average40 °F83%30.09 "Hg
* Reported Nov 18 11:20 pm — Dec 3 11:20 pm, Wunstorf, Weather by CustomWeather, © 2016

Note: Actual official high and low records may vary slightly from our data, if they occured in-between our weather recording intervals... More about our weather records

Advertising

Wunstorf Weather History for the Previous 24 Hours

Scroll right to see more
 ConditionsComfort  
Time TempWeatherWind HumidityBarometerVisibility
11:20 pm
Sat, Dec 3
28 °FChilly.2 mph93%30.36 "HgN/A
10:20 pm27 °FChilly.2 mph100%30.36 "HgN/A
9:20 pm28 °FChilly.3 mph100%30.36 "HgN/A
8:20 pm28 °FChilly.3 mph100%30.33 "HgN/A
7:20 pm30 °FChilly.3 mph93%30.33 "HgN/A
6:20 pm30 °FChilly.2 mph93%30.33 "HgN/A
5:20 pm30 °FChilly.6 mph93%30.33 "HgN/A
4:20 pm36 °FChilly.3 mph87%30.30 "HgN/A
3:20 pm41 °FQuite cool.1 mph66%30.30 "HgN/A
2:20 pm41 °FQuite cool.3 mph70%30.30 "HgN/A
1:20 pm41 °FQuite cool.3 mph70%30.30 "HgN/A
12:20 pm39 °FChilly.5 mph75%30.30 "HgN/A
11:20 am37 °FChilly.5 mph75%30.30 "HgN/A
10:20 am34 °FChilly.6 mph87%30.30 "HgN/A
9:20 am28 °FChilly.5 mph93%30.30 "HgN/A
8:20 am25 °FCold.2 mph93%30.27 "HgN/A
7:20 am27 °FChilly.2 mph100%30.27 "HgN/A
6:20 am27 °FChilly.2 mph100%30.24 "HgN/A
5:20 am27 °FChilly.2 mph93%30.24 "HgN/A
4:20 am28 °FChilly.2 mph100%30.24 "HgN/A
3:20 am28 °FChilly.2 mph93%30.24 "HgN/A
2:20 am30 °FChilly.2 mph93%30.24 "HgN/A
1:20 am30 °FChilly.3 mph93%30.24 "HgN/A
12:20 am30 °FChilly.1 mph93%30.24 "HgN/A
Weather by CustomWeather, © 2016

See weather overviewHow to use our weather pages